OK2DDS-5 Weather Reports


Display with metric or nautical units.
time (UTC)temp
F
wind
direction
speed
MPH
gust
MPH
rain 1hr
in
rain 24hr
in
rain mn
in
humidity
%
barometer
mb
20260507213506 63 0 1.0 18.0 0.00 0.00 0.00 1007.0
20260507212006 64 0 0.0 16.0 0.00 0.00 0.00 1006.0
20260507210506 64 0 0.0 11.0 0.00 0.00 0.00 1006.0
20260507205006 64 0 0.0 15.0 0.00 0.00 0.00 1006.0
20260507203506 65 0 0.0 22.0 0.00 0.00 0.00 1006.0
20260507202006 65 0 0.0 14.0 0.00 0.00 0.00 1006.0
20260507200506 65 0 0.0 12.0 0.00 0.00 0.00 1006.0
20260507195006 66 0 0.0 9.0 0.00 0.00 0.00 1006.0
20260507193506 66 0 0.0 9.0 0.00 0.00 0.00 1006.0
20260507192006 66 0 0.0 13.0 0.00 0.00 0.00 1005.0
20260507190506 67 0 0.0 13.0 0.00 0.00 0.00 1005.0
20260507185006 67 0 0.0 7.0 0.00 0.00 0.00 1005.0
20260507183506 68 0 0.0 26.0 0.00 0.00 0.00 1005.0
20260507182007 68 0 0.0 11.0 0.00 0.00 0.00 1004.0
20260507180506 70 0 0.0 6.0 0.00 0.00 0.00 1004.0
20260507175006 71 0 0.0 12.0 0.00 0.00 0.00 1004.0
20260507173506 72 0 1.0 18.0 0.00 0.00 0.00 1004.0
20260507172006 73 0 1.0 10.0 0.00 0.00 0.00 1004.0
20260507170506 75 0 1.0 6.0 0.00 0.00 0.00 1004.0
20260507165006 76 0 0.0 18.0 0.00 0.00 0.00 1003.0
20260507163506 76 0 0.0 9.0 0.00 0.00 0.00 1003.0
20260507162006 76 0 0.0 10.0 0.00 0.00 0.00 1003.0
20260507160506 81 0 0.0 22.0 0.00 0.00 0.00 1003.0
20260507155006 80 0 1.0 14.0 0.00 0.00 0.00 1003.0
20260507153506 78 0 1.0 15.0 0.00 0.00 0.00 1003.0
20260507152006 74 0 1.0 11.0 0.00 0.00 0.00 1003.0
20260507150506 77 0 1.0 8.0 0.00 0.00 0.00 1003.0
20260507145006 81 0 1.0 7.0 0.00 0.00 0.00 1003.0
20260507143506 83 0 1.0 8.0 0.00 0.00 0.00 1003.0
20260507142006 83 0 1.0 6.0 0.00 0.00 0.00 1003.0
20260507140506 83 0 1.0 11.0 0.00 0.00 0.00 1003.0
20260507135006 82 0 1.0 12.0 0.00 0.00 0.00 1003.0
20260507133506 82 0 1.0 17.0 0.00 0.00 0.00 1003.0
20260507132006 83 0 1.0 18.0 0.00 0.00 0.00 1003.0
20260507130506 81 0 1.0 12.0 0.00 0.00 0.00 1003.0
20260507125006 84 0 1.0 9.0 0.00 0.00 0.00 1003.0
20260507123506 84 0 1.0 9.0 0.00 0.00 0.00 1003.0
20260507122006 79 0 1.0 8.0 0.00 0.00 0.00 1004.0
20260507120506 76 0 1.0 11.0 0.00 0.00 0.00 1004.0
20260507115006 74 0 1.0 18.0 0.00 0.00 0.00 1004.0
20260507113506 76 0 1.0 8.0 0.00 0.00 0.00 1004.0
20260507112006 76 0 1.0 7.0 0.00 0.00 0.00 1004.0
20260507110506 77 0 1.0 28.0 0.00 0.00 0.00 1004.0
20260507105006 78 0 1.0 13.0 0.00 0.00 0.00 1004.0
20260507103506 77 0 1.0 11.0 0.00 0.00 0.00 1004.0
20260507102007 78 0 0.0 7.0 0.00 0.00 0.00 1004.0
20260507100506 75 0 1.0 10.0 0.00 0.00 0.00 1004.0
20260507095006 74 0 0.0 10.0 0.00 0.00 0.00 1004.0
20260507093506 72 0 1.0 10.0 0.00 0.00 0.00 1004.0
20260507092006 72 0 1.0 8.0 0.00 0.00 0.00 1004.0
20260507090506 71 0 1.0 10.0 0.00 0.00 0.00 1004.0
20260507085006 71 0 1.0 9.0 0.00 0.00 0.00 1004.0
20260507083506 69 0 1.0 7.0 0.00 0.00 0.00 1004.0
20260507082006 69 0 1.0 9.0 0.00 0.00 0.00 1004.0
20260507080506 68 0 1.0 14.0 0.00 0.00 0.00 1004.0
20260507075006 68 0 1.0 9.0 0.00 0.00 0.00 1004.0
20260507073506 67 0 1.0 12.0 0.00 0.00 0.00 1004.0
20260507072006 66 0 1.0 13.0 0.00 0.00 0.00 1004.0
20260507070506 66 0 1.0 10.0 0.00 0.00 0.00 1004.0
20260507065006 65 0 1.0 17.0 0.00 0.00 0.00 1004.0
20260507063506 64 0 1.0 9.0 0.00 0.00 0.00 1003.0
20260507062007 63 0 1.0 18.0 0.00 0.00 0.00 1003.0
20260507060506 63 0 1.0 18.0 0.00 0.00 0.00 1003.0
20260507055006 62 0 1.0 23.0 0.00 0.00 0.00 1003.0
20260507053506 62 0 1.0 9.0 0.00 0.00 0.00 1003.0
20260507052006 62 0 1.0 22.0 0.00 0.00 0.00 1003.0
20260507050506 61 0 0.0 10.0 0.00 0.00 0.00 1003.0
20260507045006 61 0 0.0 13.0 0.00 0.00 0.00 1002.0
20260507043506 60 0 1.0 16.0 0.00 0.00 0.00 1002.0
20260507042006 60 0 0.0 9.0 0.00 0.00 0.00 1002.0
20260507040506 61 0 1.0 19.0 0.00 0.00 0.00 1002.0
20260507035139 61 0 1.0 13.0 0.00 0.00 0.00 1001.0
20260507035006 61 0 1.0 13.0 0.00 0.00 0.00 1001.0
20260507033506 61 0 1.0 17.0 0.00 0.00 0.00 1001.0
20260507032006 60 0 1.0 15.0 0.00 0.00 0.00 1001.0
20260507030506 60 0 1.0 29.0 0.00 0.00 0.00 1001.0
20260507025006 60 0 1.0 27.0 0.00 0.00 0.00 1001.0
20260507023506 60 0 0.0 11.0 0.00 0.00 0.00 1001.0
20260507022006 61 0 1.0 21.0 0.00 0.00 0.00 1001.0
20260507020506 61 0 1.0 17.0 0.00 0.00 0.00 1001.0
20260507015006 61 0 2.0 12.0 0.00 0.00 0.00 1001.0
20260507013506 62 0 1.0 11.0 0.00 0.00 0.00 1001.0
20260507012006 62 0 2.0 15.0 0.00 0.00 0.00 1000.0
20260507010506 62 0 2.0 14.0 0.00 0.00 0.00 1000.0
20260507005006 62 0 2.0 18.0 0.00 0.00 0.00 1000.0
20260507003506 62 0 2.0 17.0 0.00 0.00 0.00 999.0
20260507002006 62 0 2.0 11.0 0.00 0.00 0.00 999.0
20260507000506 63 0 2.0 14.0 0.00 0.00 0.00 999.0
20260506235006 63 0 1.0 16.0 0.00 0.00 0.00 999.0
20260506233506 63 0 0.0 10.0 0.00 0.00 0.00 999.0
20260506232006 63 0 0.0 22.0 0.00 0.00 0.00 998.0
20260506230506 64 0 0.0 12.0 0.00 0.00 0.00 998.0
20260506225006 64 0 0.0 14.0 0.00 0.00 0.00 998.0
20260506223506 65 0 0.0 12.0 0.00 0.00 0.00 998.0
20260506222006 65 0 0.0 8.0 0.00 0.00 0.00 998.0
20260506220506 65 0 0.0 11.0 0.00 0.00 0.00 998.0
20260506215006 65 0 0.0 15.0 0.00 0.00 0.00 998.0